Home > Weather > Cheongju > Past weeks

Flag for South Korea Past Weather in Cheongju, South Korea — Yesterday and Last 2 Weeks

Now
84 °F

Passing clouds.


Feels Like: 94 °F
Forecast: 74 / 89 °F
Wind: 6 mph from Southwest

Location: Chongju Ab

Current Time: Jul 25, 2016 at 8:59:07 PM

Latest Report: Jul 25, 2016 at 8:00 PM


Visibility: N/A

Pressure: 29.80 "Hg

Humidity: 79%

Dew Point: 77 °F

Location of CheongjuLocation

Past Weather in Cheongju — Graph

°F

Cheongju Temperature Yesterday

Maximum temperature yesterday: 90 °F (at 12:00 PM)
Minimum temperature yesterday: 79 °F (at 1:00 AM)
Average temperature yesterday: 83 °F

High & Low Weather Summary for the Past Weeks

 TemperatureHumidityPressure
High91 °F (Jul 23, 4:00 PM)100% (Jul 12, 3:00 AM)29.92 "Hg (Jul 12, 3:00 AM)
Low66 °F (Jul 19, 4:00 AM)49% (Jul 19, 6:00 PM)29.50 "Hg (Jul 16, 6:00 AM)
Average79 °F78%29.73 "Hg
* Reported Jul 10 7:00 PM — Jul 25 7:00 PM, Cheongju, Weather by CustomWeather, © 2016

Note: Actual official high and low records may vary slightly from our data, if they occured in-between our weather recording intervals... More about our weather records

Advertising

Cheongju Weather History for the Previous 24 Hours

Scroll right to see more
 ConditionsComfort  
Time TempWeatherWind HumidityBarometerVisibility
7:00 PM
Mon, Jul 25
88 °FPartly sunny.5 mph70%29.80 "HgN/A
6:00 PM90 °FPartly sunny.3 mph67%29.80 "HgN/A
5:00 PM90 °FPartly sunny.5 mph67%29.80 "HgN/A
4:00 PM90 °FPartly sunny.2 mph67%29.80 "HgN/A
3:00 PM90 °FPartly sunny.6 mph67%29.83 "HgN/A
2:00 PM90 °FPartly sunny.6 mph63%29.83 "HgN/A
1:00 PM88 °FPartly sunny.7 mph66%29.86 "HgN/A
12:00 PM86 °FBroken clouds.7 mph70%29.86 "HgN/A
11:00 AM84 °FBroken clouds.8 mph74%29.86 "HgN/A
10:00 AM84 °FPartly sunny.7 mph79%29.86 "Hg6 mi
9:00 AM82 °FPartly sunny.6 mph84%29.86 "Hg6 mi
8:00 AM81 °FPartly sunny.6 mph89%29.86 "Hg4 mi
7:00 AM79 °FFog.5 mph94%29.86 "Hg3 mi
6:49 AM79 °FFog.5 mph94%29.86 "Hg3 mi
6:00 AM79 °FFog.5 mph94%29.86 "Hg3 mi
5:00 AM79 °FFog.1 mph94%29.86 "Hg2 mi
4:00 AM79 °FFog.1 mph100%29.86 "Hg2 mi
3:00 AM79 °FFog.1 mph94%29.86 "Hg2 mi
2:00 AM79 °FFog.1 mph94%29.86 "Hg3 mi
1:00 AM79 °FFog.1 mph100%29.86 "Hg3 mi
12:00 AM79 °FPartly cloudy.1 mph100%29.86 "Hg4 mi
11:00 PM
Sun, Jul 24
81 °FPartly cloudy.2 mph94%29.86 "Hg6 mi
10:00 PM81 °FPartly cloudy.2 mph94%29.86 "HgN/A
9:00 PM81 °FPartly cloudy.2 mph94%29.83 "HgN/A
8:00 PM82 °FPassing clouds.6 mph89%29.83 "HgN/A
Weather by CustomWeather, © 2016

See weather overviewHow to use our weather pages